SUPERBIRD 8 (43271 NORAD) Tracking and Keplerian Element Data

This shows tracking and keplerian element data for the satellite.

Feedback or suggestion? Click here.




ElementValue
Catalog43271
NameSUPERBIRD 8
Epoch Orbit861
Epoch Day222.89806444
Epoch Year2020
RAAN130.4843
Inclination0.0112
Eccentricity0.000162
Argument of Perigee31.4927
Mean Anonmoly282.165
Mean Motion1.00273417
Decay Rate-9.4E-07
L11 43271U 18033A 20222.89806444 -.00000094 00000-0 00000-0 0 9997
L22 43271 0.0112 130.4843 0001620 31.4927 282.1650 1.00273417 8615

Live tracking and technical data element details for SUPERBIRD 8 (NORAD 43271). SUPERBIRD 8 can be tracked NOW for your location showing map with azimuth and elevation plus other details from your city location.

Track the satellite on the map from your city or location and see movement details for azimuth, elevation, latitude, longitude, range, height, and movement on the map or in text.







IsCatalogInMostPopularTable: catalog: 43271, numindb: 1389
Update: records affected: 1



GetName: 43271 SUPERBIRD 8

Hit Count: updated at: Mon, 10 Aug 2020 21:20:54 GMT